Location: Mahannah Oil Field
(37.4664°N, 96.6003°W)
Time: 10:27:11
(UTC+00:00)

Vanguard 2 - Pass Details

Date: 25 January 2021
Orbit: 552 x 2938 km, 32.9° (Epoch: 08 March)

Event Time Altitude Azimuth Distance (km) Brightness Sun altitude
Rises 02:57:38 0° 269° (W) 3,087 11.6 -38.7°
Reaches altitude 10° 02:59:51 10° 259° (WSW) 2,348 10.7 -39.1°
Enters shadow 03:02:03 23° 239° (WSW) 1,800 9.7 -39.6°
